Notices

What's New in latest Release from April 7th, 2021:

- Updated Glossary, including Speed of Maximum Gust, and Total Hourly Precipitation

- Updated national and regional climate services offices contacts and prices information

- Addition of station inventory lists for 1981-2010, 1971-2000, and 1961-1990 Normals.

If you haven't already, please take our survey and provide feedback about our website: https://eccc.sondage-survey.ca/f/LanguageSelection.aspx?s=442ca660-fcf1-47c0-95a9-59707d6fd709

Hourly Data Report for April 24, 2003

TORONTO CITY
ONTARIO

43°40'00.000" N
79°24'00.000" W
112.50 m
6158355
71508
XTO

Download Data

Hourly Data (April 2003)
Hourly Data Report for April 24, 2003
TIME
LST
Temp Definition
°C
Dew Point Definition
°C
Rel Hum Definition
%
Precip. Amount Definition
mm

Wind Dir Definition
10's deg

Wind Spd Definition
km/h
Visibility Definition
km
Stn Press Definition
kPa
Hmdx Definition


Wind Chill Definition


Weather Definition


00:00 2.3 -4.8 59   LegendMM LegendMM LegendMM 100.52     LegendNANA
01:00 2.0 -5.5 58   LegendMM LegendMM LegendMM 100.48     LegendNANA
02:00 1.9 -4.6 62   LegendMM LegendMM LegendMM 100.43     LegendNANA
03:00 1.2 -4.0 68   LegendMM LegendMM LegendMM 100.44     LegendNANA
04:00 1.2 -3.8 69   LegendMM LegendMM LegendMM 100.45     LegendNANA
05:00 0.8 -3.6 72   LegendMM LegendMM LegendMM 100.46     LegendNANA
06:00 0.9 -3.8 71   LegendMM LegendMM LegendMM 100.50     LegendNANA
07:00 2.4 -4.7 59   LegendMM LegendMM LegendMM 100.52     LegendNANA
08:00 4.9 -6.7 43   LegendMM LegendMM LegendMM 100.51     LegendNANA
09:00 7.3 -8.8 31   LegendMM LegendMM LegendMM 100.49     LegendNANA
10:00 9.5 -7.7 29   LegendMM LegendMM LegendMM 100.49     LegendNANA
11:00 10.4 -11.3 20   LegendMM LegendMM LegendMM 100.43     LegendNANA
12:00 12.3 -8.9 22   LegendMM LegendMM LegendMM 100.40     LegendNANA
13:00 13.1 -8.6 21   LegendMM LegendMM LegendMM 100.33     LegendNANA
14:00 13.2 -9.5 20   LegendMM LegendMM LegendMM 100.26     LegendNANA
15:00 13.7 -8.5 21   LegendMM LegendMM LegendMM 100.16     LegendNANA
16:00 13.3 -7.6 23   LegendMM LegendMM LegendMM 100.13     LegendNANA
17:00 12.9 -6.8 25   LegendMM LegendMM LegendMM 100.08     LegendNANA
18:00 11.9 -6.2 28   LegendMM LegendMM LegendMM 100.07     LegendNANA
19:00 10.4 -6.8 29   LegendMM LegendMM LegendMM 100.08     LegendNANA
20:00 8.9 -3.2 42   LegendMM LegendMM LegendMM 100.06     LegendNANA
21:00 9.7 -4.9 35   LegendMM LegendMM LegendMM 100.07     LegendNANA
22:00 9.0 -7.7 30   LegendMM LegendMM LegendMM 100.06     LegendNANA
23:00 8.6 -8.1 30   LegendMM LegendMM LegendMM 100.02     LegendNANA

Notes on Data Quality.

Legend

  • E = Estimated
  • M = Missing
  • NA = Not Available*
  • [empty] = Indicates an unobserved value
Date modified: